Location: Nantong Television Tower
(32.0188°N, 120.8512°E)
Time: 00:56:12
(UTC+08:00)

Vanguard 3 - Visible Passes

Search period start: 31 July 2016 00:00
Search period end: 10 August 2016 00:00
Orbit: 509 x 3266 km, 33.3° (Epoch: 30 July)

Date Brightness Start Highest point End Pass type
(mag) Time Alt. Az. Time Alt. Az. Time Alt. Az.
31 Jul 9.8 00:34:16 10° WNW 00:52:33 75° SSW 01:11:35 10° ESE visible
31 Jul 10.1 02:51:06 10° W 03:08:32 40° SW 03:23:27 10° SSE visible
31 Jul 9.6 21:05:49 10° W 21:18:20 86° N 21:38:01 10° E visible
31 Jul 9.8 23:19:17 10° WNW 23:35:44 86° SSW 23:55:59 10° ESE visible
01 Aug 9.9 01:34:28 10° WNW 01:52:46 56° SSW 02:10:15 10° SE visible
01 Aug 10.5 03:54:22 10° W 04:07:21 22° SW 04:18:38 10° S visible
01 Aug 9.3 19:52:22 10° WSW 20:02:37 87° SSE 20:20:27 10° E visible
01 Aug 9.7 22:04:55 10° W 22:19:00 87° N 22:39:18 10° E visible
02 Aug 9.8 00:18:56 10° WNW 00:36:23 70° SSW 00:55:45 10° SE visible
02 Aug 10.2 02:35:39 10° W 02:52:16 36° SW 03:07:23 10° SSE visible
02 Aug 9.5 20:51:06 10° W 21:02:47 85° N 21:21:55 10° E visible
02 Aug 9.7 23:04:11 10° WNW 23:19:44 82° SSW 23:27:40 48° ESE visible
03 Aug 10.1 01:19:03 10° WNW 01:45:44 33° SSE 01:54:16 10° SE visible
03 Aug 10.6 03:50:43 19° SW 03:51:13 19° SW 04:01:48 10° S visible
03 Aug 9.2 19:37:46 10° WSW 19:47:16 89° N 20:04:16 10° E visible
03 Aug 9.6 21:50:04 10° W 22:03:16 89° N 22:15:16 31° E visible
04 Aug 9.8 00:03:42 10° WNW 00:39:34 10° SE 00:39:44 10° SE visible
04 Aug 10.6 02:20:26 10° W 02:44:25 23° S 02:51:02 10° SSE visible
04 Aug 9.3 20:36:26 10° W 20:47:19 85° N 21:03:46 14° E visible
04 Aug 9.6 22:49:11 10° WNW 23:03:47 78° SSW 23:08:12 62° SE visible
05 Aug 10.4 01:03:49 10° W 01:37:10 12° SSE 01:38:01 10° SSE visible
05 Aug 10.9 03:41:57 12° SSW 03:41:57 12° SSW 03:44:18 10° SSW visible
05 Aug 9.0 19:23:13 10° W 19:32:02 87° N 19:48:07 10° E visible
05 Aug 9.4 21:35:15 10° W 21:47:36 88° SSW 21:57:10 38° ESE visible
05 Aug 9.9 23:48:35 10° WNW 00:01:38 57° SW 00:01:38 57° SW visible
06 Aug 11.1 02:05:30 10° W 02:34:08 10° S 02:34:20 10° S visible
06 Aug 9.2 20:21:49 10° W 20:31:56 85° N 20:46:22 18° E visible
06 Aug 9.6 22:34:15 10° WNW 22:47:54 73° SSW 22:50:52 65° SSE visible
07 Aug 10.6 00:48:46 10° W 01:25:57 - SSE 00:55:21 27° W visible
07 Aug 8.9 19:08:44 10° W 19:16:53 84° N 19:31:59 10° E visible
07 Aug 9.3 21:20:32 10° WNW 21:32:01 85° SSW 21:40:17 40° ESE visible
07 Aug 9.9 23:33:36 10° W 23:44:47 49° WSW 23:44:47 49° WSW visible
08 Aug11.302:22:10SSE02:22:10SSE01:49:17Wvisible
08 Aug 9.1 20:07:15 10° W 20:16:37 87° N 20:29:51 19° E visible
08 Aug 9.5 22:19:24 10° WNW 22:32:06 67° SSW 22:34:22 63° S visible
09 Aug 10.7 00:33:55 10° W 00:38:52 22° W 00:38:52 22° W visible
09 Aug 8.8 18:54:16 10° W 19:01:50 83° N 19:15:55 10° E visible
09 Aug 9.2 21:05:51 10° WNW 21:16:30 80° SSW 21:24:03 41° ESE visible
09 Aug 10.0 23:18:45 10° W 23:28:34 43° WSW 23:28:34 43° WSW visible
